Prague, Czech Republic

10:05 AM CET on January 20, 2017 (GMT +0100)
Ruzyne

Weather History for LKPR - September, 2013

Change the Weather History Date:

Monday, September 16, 2013

  Actual Average Record
Temperature  
Mean Temperature 56 °F -  
Max Temperature 58 °F 61 °F 80 °F (2015)
Min Temperature 53 °F 43 °F 39 °F (1996)
Degree Days  
Heating Degree Days 10    
Growing Degree Days 6 (Base 50)    
Moisture  
Dew Point 52 °F    
Average Humidity 89    
Maximum Humidity 100    
Minimum Humidity 80    
Precipitation  
Precipitation 0.12 in 0.05 in - ()
Sea Level Pressure  
Sea Level Pressure 29.65 in    
Wind  
Wind Speed 7 mph ()    
Max Wind Speed 17 mph    
Max Gust Speed -    
Visibility 6.2 miles    
Events Rain    
Averages and records for this station are not official NWS values.
T = Trace of Precipitation, MM = Missing Value Source: Averaged Metar Reports

Daily Weather History Graph

Daily Weather History Graph

Search for Another Location

Airport or City:

Trip Planner

Search our weather history database for the weather conditions in past years. The results will help you decide how hot, cold, wet, or windy it might be!

Date:

Astronomy

Sep. 16, 2013 Rise Set
Actual Time 6:40 AM CEST 7:14 PM CEST
Civil Twilight 6:07 AM CEST 7:46 PM CEST
Nautical Twilight 5:28 AM CEST 8:25 PM CEST
Astronomical Twilight 4:47 AM CEST 9:05 PM CEST
Moon 5:24 PM CEST (9/16) 2:49 AM CEST (9/16)
Length of Visible Light 13h 39m
Length of Day
12h 34m
Waxing Gibbous, 88% of the Moon is Illuminated
Sep 16
Waxing Gibbous
Sep 19
Full
Sep 27
Last Quarter
Oct 5
New
Oct 12
First Quarter

Hourly Weather History & Observations

Time (CEST) Temp. Dew Point Humidity Pressure Visibility Wind Dir Wind Speed Gust Speed Precip Events Conditions
12:00 AM 55.4 °F 53.6 °F 94% 29.74 in 6.2 mi NW 4.6 mph - N/A   Mostly Cloudy
12:13 AM 55.4 °F 53.6 °F 94% 29.74 in 6.2 mi WNW 4.6 mph - N/A   Mostly Cloudy
12:30 AM 55.4 °F 53.6 °F 94% 29.74 in 6.2 mi NW 4.6 mph - N/A   Mostly Cloudy
1:00 AM 55.4 °F 53.6 °F 94% 29.74 in 6.2 mi West 3.5 mph - N/A   Mostly Cloudy
1:30 AM 55.4 °F 53.6 °F 94% 29.74 in 6.2 mi West 3.5 mph - N/A   Mostly Cloudy
2:00 AM 55 °F 54 °F 96% 29.74 in 9 mi SSW 4.5 mph - -   Partly Cloudy
2:00 AM 55.4 °F 53.6 °F 94% 29.74 in 6.2 mi WSW 3.5 mph - N/A   Mostly Cloudy
2:30 AM 55.4 °F 55.4 °F 100% 29.74 in 6.2 mi SW 4.6 mph - N/A   Mostly Cloudy
3:00 AM 55.4 °F 55.4 °F 100% 29.71 in 6.2 mi SW 3.5 mph - N/A   Overcast
3:30 AM 55.4 °F 53.6 °F 94% 29.71 in 6.2 mi West 5.8 mph - N/A   Overcast
4:00 AM 55.4 °F 53.6 °F 94% 29.71 in 6.2 mi SW 5.8 mph - N/A   Overcast
4:30 AM 55.4 °F 53.6 °F 94% 29.71 in 6.2 mi SSW 6.9 mph - N/A   Scattered Clouds
5:00 AM 55.4 °F 53.6 °F 94% 29.71 in 6.2 mi WSW 9.2 mph - N/A   Mostly Cloudy
5:30 AM 55.4 °F 53.6 °F 94% 29.71 in 6.2 mi WSW 12.7 mph - N/A   Mostly Cloudy
6:00 AM 55.4 °F 51.8 °F 88% 29.71 in 6.2 mi WSW 9.2 mph - N/A   Mostly Cloudy
6:30 AM 53.6 °F 51.8 °F 94% 29.71 in 6.2 mi SSW 8.1 mph - N/A   Partly Cloudy
7:00 AM 53.6 °F 51.8 °F 94% 29.68 in 6.2 mi SSW 9.2 mph - N/A   Partly Cloudy
7:30 AM 53.6 °F 51.8 °F 94% 29.68 in 6.2 mi SSW 8.1 mph - N/A   Partly Cloudy
8:00 AM 55.4 °F 51.8 °F 88% 29.68 in 6.2 mi SSW 8.1 mph - N/A   Partly Cloudy
8:30 AM 55.4 °F 51.8 °F 88% 29.68 in 6.2 mi SW 12.7 mph - N/A   Partly Cloudy
9:00 AM 55.4 °F 51.8 °F 88% 29.68 in 6.2 mi WSW 15.0 mph - N/A   Partly Cloudy
9:30 AM 55.4 °F 50.0 °F 82% 29.68 in 6.2 mi SW 17.3 mph - N/A Rain Light Rain
9:49 AM 55.4 °F 50.0 °F 82% 29.68 in 6.2 mi SW 13.8 mph - N/A   Partly Cloudy
10:00 AM 55.4 °F 50.0 °F 82% 29.71 in 6.2 mi SW 15.0 mph - N/A   Partly Cloudy
10:24 AM 55.4 °F 50.0 °F 82% 29.71 in 6.2 mi SW 10.4 mph - N/A Rain Light Rain
10:30 AM 55.4 °F 50.0 °F 82% 29.71 in 6.2 mi SSW 10.4 mph - N/A Rain Light Rain
11:00 AM 55.4 °F 50.0 °F 82% 29.71 in 6.2 mi SW 12.7 mph - N/A Rain Light Rain
11:30 AM 55.4 °F 50.0 °F 82% 29.68 in 6.2 mi SSW 9.2 mph - N/A Rain Light Rain
12:00 PM 55.4 °F 51.8 °F 88% 29.68 in 6.2 mi SSW 11.5 mph - N/A   Partly Cloudy
12:30 PM 55.4 °F 50.0 °F 82% 29.68 in 6.2 mi SW 12.7 mph - N/A   Partly Cloudy
1:00 PM 55.4 °F 50.0 °F 82% 29.68 in 6.2 mi SW 13.8 mph - N/A   Mostly Cloudy
1:15 PM 55.4 °F 50.0 °F 82% 29.68 in 6.2 mi SW 11.5 mph - N/A   Scattered Clouds
1:30 PM 55.4 °F 50.0 °F 82% 29.68 in 6.2 mi SW 15.0 mph - N/A Rain Light Rain
2:00 PM 56 °F 51 °F 80% 29.67 in 37 mi SW 13.4 mph - - Rain Light Rain
2:00 PM 57.2 °F 51.8 °F 82% 29.65 in 6.2 mi SSW 11.5 mph - N/A   Scattered Clouds
2:30 PM 57.2 °F 51.8 °F 82% 29.65 in 6.2 mi SW 11.5 mph - N/A   Scattered Clouds
3:00 PM 57.2 °F 51.8 °F 82% 29.65 in 6.2 mi SSW 9.2 mph - N/A   Mostly Cloudy
3:30 PM 57.2 °F 51.8 °F 82% 29.65 in 6.2 mi SSW 10.4 mph - N/A   Mostly Cloudy
4:00 PM 57.2 °F 51.8 °F 82% 29.62 in 6.2 mi SW 10.4 mph - N/A   Mostly Cloudy
4:30 PM 57.2 °F 51.8 °F 82% 29.62 in 6.2 mi SW 6.9 mph - N/A   Scattered Clouds
5:00 PM 57.2 °F 51.8 °F 82% 29.62 in 6.2 mi SSW 8.1 mph - N/A   Scattered Clouds
5:02 PM 57.2 °F 51.8 °F 82% 29.62 in 6.2 mi SSW 8.1 mph - N/A Rain Light Rain
5:17 PM 57.2 °F 51.8 °F 82% 29.62 in 4.3 mi SSW 10.4 mph - N/A Rain Light Rain
5:30 PM 55.4 °F 51.8 °F 88% 29.62 in 3.7 mi SSW 8.1 mph - N/A Rain Light Rain
5:46 PM 55.4 °F 51.8 °F 88% 29.62 in 5.0 mi SW 9.2 mph - N/A Rain Rain
5:53 PM 55.4 °F 51.8 °F 88% 29.62 in 6.2 mi SW 10.4 mph - N/A Rain Light Rain
6:00 PM 55.4 °F 51.8 °F 88% 29.59 in 6.2 mi SW 11.5 mph - N/A Rain Light Rain
6:30 PM 53.6 °F 51.8 °F 94% 29.59 in 6.2 mi SSW 9.2 mph - N/A Rain Light Rain
7:00 PM 53.6 °F 51.8 °F 94% 29.59 in 6.2 mi SSW 8.1 mph - N/A   Partly Cloudy
7:30 PM 53.6 °F 51.8 °F 94% 29.59 in 6.2 mi SSW 12.7 mph - N/A   Partly Cloudy
8:00 PM 54 °F 51 °F 86% 29.59 in 31 mi SSW 6.7 mph - -   Partly Cloudy
8:00 PM 53.6 °F 51.8 °F 94% 29.59 in 6.2 mi SW 6.9 mph - N/A   Partly Cloudy
8:17 PM 53.6 °F 51.8 °F 94% 29.59 in 6.2 mi SW 5.8 mph - N/A Rain Light Rain
8:30 PM 53.6 °F 51.8 °F 94% 29.59 in 6.2 mi SW 5.8 mph - N/A Rain Light Rain
9:00 PM 53.6 °F 51.8 °F 94% 29.56 in 6.2 mi SW 6.9 mph - N/A Rain Light Rain
9:30 PM 53.6 °F 51.8 °F 94% 29.56 in 6.2 mi South 10.4 mph - N/A   Scattered Clouds
10:00 PM 53.6 °F 51.8 °F 94% 29.56 in - SSW 9.2 mph - N/A   Clear
10:30 PM 53.6 °F 51.8 °F 94% 29.53 in - SSW 8.1 mph - N/A   Clear
11:00 PM 53.6 °F 51.8 °F 94% 29.53 in 6.2 mi SSW 9.2 mph - N/A   Partly Cloudy
11:17 PM 53.6 °F 51.8 °F 94% 29.53 in 6.2 mi SSW 9.2 mph - N/A Rain Light Rain
11:30 PM 53.6 °F 51.8 °F 94% 29.53 in 6.2 mi South 9.2 mph - N/A   Mostly Cloudy
11:53 PM 53.6 °F 50.0 °F 88% 29.53 in 6.2 mi SSW 8.1 mph - N/A Rain Light Rain